Regional Weather Roundup
Issued by NWS

Home | Current Version | Previous Version | Text Only | Print | Product List | Glossary Off
Versions: 1 2 3 4 5 6 7 8 9 10 11 12 13 14 15 16 17 18 19 20 21 22 23 24 25 26 27 28 29 30 31 32 33 34 35 36 37 38 39 40 41 42 43 44 45 46 47 48 49 50

000
ASUS43 KLOT 290100
RWRIL

ILLINOIS REGIONAL WEATHER ROUNDUP
NATIONAL WEATHER SERVICE CHICAGO/ROMEOVILLE IL
800 PM CDT THU AUG 28 2014

NOTE: "FAIR" INDICATES FEW OR NO CLOUDS BELOW 12,000 FEET WITH NO
SIGNIFICANT WEATHER AND/OR OBSTRUCTIONS TO VISIBILITY.

* THESE STATIONS ARE NOT UNDER NWS QUALITY CONTROL. THEY ALSO MAY NOT
  REPORT WEATHER SUCH AS PRECIPITATION OR FOG.

ILZ001-002-007-009-015-016-024-290200-
NORTHWEST ILLINOIS

CITY           SKY/WX    TMP DP  RH WIND       PRES   REMARKS
MOLINE         CLOUDY    69  67  93 E8        29.96F
STERLING*      CLOUDY    66  64  94 SE8       30.00F
$$

ILZ003-004-008-010-011-017-018-290200-
NORTH CENTRAL ILLINOIS

CITY           SKY/WX    TMP DP  RH WIND       PRES   REMARKS
ROCKFORD       CLOUDY    65  60  84 E9        30.04F
$$

ILZ005-006-012>014-019>023-290200-
NORTHEAST ILLINOIS

CITY           SKY/WX    TMP DP  RH WIND       PRES   REMARKS
CHICAGO-OHARE  CLOUDY    71  58  63 E8        30.05S
CHICAGO-MIDWAY LGT RAIN  74  64  71 E12       30.04F
AURORA         LGT RAIN  69  62  78 CALM      30.06R
WAUKEGAN       CLOUDY    67  60  78 E5        30.05S
DUPAGE AIRPORT CLOUDY    69  61  75 E5        30.05S
WHEELING       CLOUDY    70  61  73 E3        30.07S
NORTHERLY ISL    N/A     71  64  78 E7          N/A
$$

LMZ740>746-290200-
SOUTHERN LAKE MICHIGAN

STATION/POSITION SKY/WX   TEMP    WIND        PRES    VSBY  WAVE
                          AIR SEA DIR/SP/G                  HT/PER
                          (F)     (DEG/KT/KT) (MB)    (MI)  (FT/S)
SOUTHERN BUOY              69 69   70/ 10/ 12 1018.3F
WAUKEGAN HARBOR            69     100/  8/ 10   N/A
HARRISON CRIB              70      60/  9/ 11   N/A
BURNHAM HARBOR             71      60/  8/  8   N/A
CALUMET HARBOR             71      40/  6/  8 1016.5S
MICHIGAN CITY              70      40/ 11/ 13   N/A
MICHIGAN CITY 6N           72 73   50/ 10/ 10   N/A           2/ 3
ST. JOSEPH                 73 72   70/  6/  8   N/A           1/ 3
$$

ILZ025>027-034>036-040-047-049-050-058-095>099-290200-
WEST-CENTRAL ILLINOIS

CITY           SKY/WX    TMP DP  RH WIND       PRES   REMARKS
QUINCY         MOCLDY    74  70  87 E8        29.95R
MACOMB*        CLOUDY    70  70 100 SE6       30.00R
$$

ILZ028>032-037-038-041>044-048-051>054-059>061-290200-
CENTRAL ILLINOIS

CITY           SKY/WX    TMP DP  RH WIND       PRES   REMARKS
DECATUR        MOCLDY    76  72  87 E7        30.00S
PEORIA         LGT RAIN  72  69  90 E5        30.01S
SPRINGFIELD    CLOUDY    77  70  79 S10G28    30.02R THUNDER
TAYLORVILLE    NOT AVBL
$$

ILZ033-039-045-046-055>057-062-063-290200-
EAST-CENTRAL ILLINOIS

CITY           SKY/WX    TMP DP  RH WIND       PRES   REMARKS
CHAMPAIGN      MOCLDY    74  70  87 E6        30.03R
MATTOON        PTCLDY    77  71  82 SE5       30.01R
$$

ILZ079-100>102-290200-
SOUTHWEST ILLINOIS

CITY           SKY/WX    TMP DP  RH WIND       PRES   REMARKS
ALTON          CLOUDY    73  70  88 E7        29.99R
BELLEVILLE     CLOUDY    75  75  99 E5        29.98S
$$

ILZ064>066-069>071-074>076-080>082-084>086-088>090-092>094-290200-
SOUTH-CENTRAL ILLINOIS

CITY           SKY/WX    TMP DP  RH WIND       PRES   REMARKS
CARBONDALE     CLOUDY    74  70  87 CALM      29.99R
MT. VERNON     CLOUDY    75  68  78 CALM      30.02R
$$

ILZ067-068-072-073-078-083-087-091-290200-
SOUTHEAST ILLINOIS

CITY           SKY/WX    TMP DP  RH WIND       PRES   REMARKS
LAWRENCEVILLE  MOCLDY    79  74  84 E3        30.00R HX  82
$$

ABBREVIATIONS USED IN REMARKS
   TC - TEMPERATURE IN CELSIUS
  WCI - WIND CHILL INDEX
   HX - HEAT INDEX
  VSB - VISIBILITY
$$




USA.gov is the U.S. government's official web portal to all federal, state and local government web resources and services.